CFG321 EIDW-LEBL

Flight info

Callsign CFG321
Flight time 2h 4m
Altitude 35000
Route PESIT2J PESIT DCT BAKUR DCT GUBJE DCT GISOK DCT TACQI DCT MANIG DCT KORER UM616 LUGEN/N0405F250 UM616 TUPAR DCT CNA DCT SECHE DCT AGN DCT TOU DCT LOMRA DCT ROCAN DCT PUMAL PUMAL1Z
Aircraft A321/M-SDE3FGHIRWY/L

Departure

Time 2026-05-06 18:19
Airport Dublin Airport (EIDW)

Arrival

Time 2026-05-06 20:23
Airport Josep Tarradellas Barcelona-El Prat Airport (LEBL)
Time Latitude Longitude Altitude Speed Heading
2026-05-06 18:06 53.42355 -6.24524 225 ft 0 kts 136°
2026-05-06 18:11 53.42362 -6.24536 226 ft 3 kts 136°
2026-05-06 18:12 53.42377 -6.24560 228 ft 3 kts 135°
2026-05-06 18:12 53.42390 -6.24583 225 ft 3 kts 135°
2026-05-06 18:12 53.42403 -6.24604 226 ft 3 kts 131°
2026-05-06 18:12 53.42414 -6.24630 225 ft 3 kts 101°
2026-05-06 18:13 53.42414 -6.24661 226 ft 3 kts 68°
2026-05-06 18:13 53.42409 -6.24679 227 ft 0 kts 63°
2026-05-06 18:13 53.42409 -6.24680 227 ft 0 kts 63°
2026-05-06 18:14 53.42424 -6.24674 228 ft 9 kts
2026-05-06 18:14 53.42483 -6.24762 225 ft 12 kts 308°
2026-05-06 18:14 53.42590 -6.24863 226 ft 22 kts 336°
2026-05-06 18:15 53.42722 -6.24985 225 ft 21 kts 326°
2026-05-06 18:15 53.42820 -6.25151 225 ft 19 kts 326°
2026-05-06 18:15 53.42954 -6.25253 226 ft 25 kts 334°
2026-05-06 18:15 53.43109 -6.25363 225 ft 24 kts 337°
2026-05-06 18:16 53.43223 -6.25518 226 ft 21 kts 292°
2026-05-06 18:16 53.43339 -6.25639 225 ft 20 kts 342°
2026-05-06 18:16 53.43406 -6.25517 225 ft 17 kts 94°
2026-05-06 18:16 53.43397 -6.25326 225 ft 17 kts 95°
2026-05-06 18:17 53.43382 -6.25044 225 ft 31 kts 95°
2026-05-06 18:17 53.43359 -6.24676 225 ft 32 kts 96°
2026-05-06 18:17 53.43341 -6.24313 225 ft 31 kts 96°
2026-05-06 18:17 53.43322 -6.23974 224 ft 24 kts 93°
2026-05-06 18:18 53.43440 -6.23858 217 ft 24 kts 351°
2026-05-06 18:18 53.43500 -6.24083 222 ft 23 kts 276°
2026-05-06 18:18 53.43525 -6.24595 224 ft 77 kts 275°
2026-05-06 18:18 53.43593 -6.25854 227 ft 136 kts 275°
2026-05-06 18:19 53.43694 -6.27660 374 ft 165 kts 275°
2026-05-06 18:19 53.43803 -6.29545 1037 ft 160 kts 275°
2026-05-06 18:19 53.43990 -6.31371 1716 ft 160 kts 291°
2026-05-06 18:19 53.44659 -6.32838 2301 ft 158 kts 316°
2026-05-06 18:20 53.45445 -6.34091 2942 ft 155 kts 314°
2026-05-06 18:20 53.46208 -6.35345 3553 ft 153 kts 313°
2026-05-06 18:20 53.46945 -6.36612 4123 ft 151 kts 311°
2026-05-06 18:20 53.47598 -6.37969 4707 ft 148 kts 302°
2026-05-06 18:21 53.48181 -6.39405 5198 ft 153 kts 302°
2026-05-06 18:21 53.48852 -6.40935 5462 ft 173 kts 303°
2026-05-06 18:21 53.49615 -6.42662 5637 ft 194 kts 303°
2026-05-06 18:21 53.50442 -6.44561 5786 ft 213 kts 302°
2026-05-06 18:22 53.51020 -6.46954 5895 ft 234 kts 276°
2026-05-06 18:22 53.50841 -6.49777 6236 ft 255 kts 248°
2026-05-06 18:22 53.50038 -6.52470 6984 ft 261 kts 242°
2026-05-06 18:22 53.49180 -6.55188 7831 ft 265 kts 242°
2026-05-06 18:23 53.48310 -6.57947 8648 ft 271 kts 242°
2026-05-06 18:23 53.47424 -6.60762 8923 ft 273 kts 242°
2026-05-06 18:23 53.46533 -6.63575 9019 ft 274 kts 241°
2026-05-06 18:23 53.45551 -6.66345 9796 ft 277 kts 239°
2026-05-06 18:24 53.44511 -6.69114 10402 ft 290 kts 238°
2026-05-06 18:24 53.43381 -6.72073 10659 ft 313 kts 238°
2026-05-06 18:24 53.42162 -6.75254 10903 ft 334 kts 238°
2026-05-06 18:24 53.40887 -6.78584 11492 ft 343 kts 238°
2026-05-06 18:25 53.39596 -6.81970 12253 ft 347 kts 238°
2026-05-06 18:25 53.38297 -6.85395 13024 ft 350 kts 238°
2026-05-06 18:25 53.36983 -6.88863 13804 ft 354 kts 238°
2026-05-06 18:25 53.35656 -6.92362 14473 ft 358 kts 238°
2026-05-06 18:26 53.34314 -6.95891 15145 ft 362 kts 238°
2026-05-06 18:26 53.32956 -6.99458 15819 ft 365 kts 238°
2026-05-06 18:26 53.31583 -7.03059 16476 ft 369 kts 238°
2026-05-06 18:26 53.30191 -7.06705 17136 ft 373 kts 238°
2026-05-06 18:27 53.28787 -7.10374 17769 ft 377 kts 238°
2026-05-06 18:27 53.27363 -7.14080 18383 ft 381 kts 238°
2026-05-06 18:27 53.25773 -7.17637 18890 ft 387 kts 227°
2026-05-06 18:27 53.23633 -7.20416 19395 ft 394 kts 210°
2026-05-06 18:28 53.21064 -7.22069 19883 ft 401 kts 193°
2026-05-06 18:28 53.18258 -7.22396 20379 ft 409 kts 176°
2026-05-06 18:28 53.15479 -7.21294 20861 ft 415 kts 158°
2026-05-06 18:28 53.12994 -7.18808 21352 ft 421 kts 140°
2026-05-06 18:29 53.11021 -7.15277 21835 ft 425 kts 129°
2026-05-06 18:29 53.09114 -7.11413 22375 ft 428 kts 129°
2026-05-06 18:29 53.07242 -7.07623 22889 ft 431 kts 129°
2026-05-06 18:29 53.05304 -7.03710 23406 ft 435 kts 129°
2026-05-06 18:30 53.03395 -6.99875 23850 ft 437 kts 129°
2026-05-06 18:30 53.01447 -6.95978 24287 ft 440 kts 129°
2026-05-06 18:30 52.99487 -6.92063 24714 ft 442 kts 129°
2026-05-06 18:30 52.97514 -6.88121 25138 ft 445 kts 129°
2026-05-06 18:31 52.95530 -6.84166 25560 ft 448 kts 129°
2026-05-06 18:31 52.93531 -6.80185 25981 ft 450 kts 129°
2026-05-06 18:31 52.91519 -6.76184 26390 ft 453 kts 129°
2026-05-06 18:31 52.89495 -6.72166 26798 ft 456 kts 129°
2026-05-06 18:32 52.87457 -6.68125 27189 ft 458 kts 129°
2026-05-06 18:32 52.85411 -6.64068 27583 ft 461 kts 129°
2026-05-06 18:32 52.83346 -6.59986 27963 ft 464 kts 129°
2026-05-06 18:32 52.81269 -6.55891 28385 ft 466 kts 129°
2026-05-06 18:33 52.79180 -6.51781 28788 ft 468 kts 129°
2026-05-06 18:33 52.77080 -6.47656 29157 ft 471 kts 129°
2026-05-06 18:33 52.74972 -6.43519 29623 ft 470 kts 129°
2026-05-06 18:33 52.72868 -6.39392 30132 ft 469 kts 128°
2026-05-06 18:34 52.71451 -6.36617 30431 ft 468 kts 128°
2026-05-06 18:34 52.69381 -6.32566 30858 ft 467 kts 128°
2026-05-06 18:34 52.67287 -6.28478 31287 ft 467 kts 128°
2026-05-06 18:34 52.65190 -6.24398 31719 ft 466 kts 128°
2026-05-06 18:35 52.63101 -6.20336 32153 ft 465 kts 128°
2026-05-06 18:35 52.61011 -6.16270 32590 ft 464 kts 127°
2026-05-06 18:35 52.58928 -6.12229 33056 ft 462 kts 128°
2026-05-06 18:35 52.56851 -6.08211 33545 ft 460 kts 128°
2026-05-06 18:36 52.54782 -6.04216 33923 ft 460 kts 127°
2026-05-06 18:36 52.52706 -6.00215 34004 ft 459 kts 127°
2026-05-06 18:36 52.48564 -5.92250 34020 ft 459 kts 128°
2026-05-06 18:37 52.44412 -5.84302 34009 ft 459 kts 128°
2026-05-06 18:37 52.39731 -5.77169 34005 ft 464 kts 144°
2026-05-06 18:38 52.33891 -5.72721 34022 ft 466 kts 163°
2026-05-06 18:38 52.27673 -5.69736 34011 ft 466 kts 162°
2026-05-06 18:39 52.21558 -5.66263 34031 ft 465 kts 156°
2026-05-06 18:40 52.12593 -5.60211 34015 ft 464 kts 157°
2026-05-06 18:40 52.06635 -5.56224 34030 ft 463 kts 157°
2026-05-06 18:41 52.00714 -5.52094 34014 ft 463 kts 154°
2026-05-06 18:41 51.94978 -5.47527 34033 ft 462 kts 152°
2026-05-06 18:42 51.89249 -5.42811 34014 ft 462 kts 153°
2026-05-06 18:42 51.83487 -5.38224 34029 ft 461 kts 154°
2026-05-06 18:43 51.77709 -5.33730 34010 ft 461 kts 154°
2026-05-06 18:43 51.71929 -5.29248 34021 ft 461 kts 154°
2026-05-06 18:44 51.66151 -5.24752 34024 ft 460 kts 155°
2026-05-06 18:44 51.60389 -5.20270 34005 ft 460 kts 154°
2026-05-06 18:45 51.54617 -5.15799 34025 ft 460 kts 155°
2026-05-06 18:45 51.49078 -5.10691 34003 ft 460 kts 142°
2026-05-06 18:46 51.44243 -5.03949 34021 ft 461 kts 139°
2026-05-06 18:46 51.39434 -4.97136 34010 ft 462 kts 140°
2026-05-06 18:47 51.34618 -4.90346 34013 ft 462 kts 140°
2026-05-06 18:47 51.29790 -4.83578 34016 ft 462 kts 140°
2026-05-06 18:48 51.24956 -4.76818 34026 ft 462 kts 140°
2026-05-06 18:48 51.20131 -4.70074 34011 ft 461 kts 140°
2026-05-06 18:49 51.15304 -4.63354 34013 ft 461 kts 140°
2026-05-06 18:49 51.10503 -4.56694 34011 ft 461 kts 140°
2026-05-06 18:50 51.05669 -4.50011 34017 ft 461 kts 140°
2026-05-06 18:50 51.00439 -4.44197 34017 ft 459 kts 149°
2026-05-06 18:51 50.95039 -4.38806 34010 ft 459 kts 149°
2026-05-06 18:51 50.89635 -4.33420 34009 ft 459 kts 149°
2026-05-06 18:52 50.84232 -4.28054 34020 ft 459 kts 149°
2026-05-06 18:52 50.78818 -4.22692 34012 ft 458 kts 149°
2026-05-06 18:53 50.73420 -4.17359 34014 ft 458 kts 149°
2026-05-06 18:53 50.68023 -4.12038 34016 ft 457 kts 149°
2026-05-06 18:54 50.62623 -4.06736 34020 ft 457 kts 149°
2026-05-06 18:54 50.57217 -4.01438 34017 ft 458 kts 150°
2026-05-06 18:55 50.51809 -3.96157 34021 ft 458 kts 150°
2026-05-06 18:55 50.46399 -3.90887 34023 ft 458 kts 150°
2026-05-06 18:56 50.41021 -3.85657 34022 ft 458 kts 150°
2026-05-06 18:56 50.35609 -3.80412 34016 ft 458 kts 150°
2026-05-06 18:57 50.30192 -3.75177 34022 ft 457 kts 150°
2026-05-06 18:57 50.24779 -3.69954 34023 ft 457 kts 150°
2026-05-06 18:58 50.19358 -3.64738 34022 ft 457 kts 150°
2026-05-06 18:58 50.13936 -3.59546 34023 ft 457 kts 150°
2026-05-06 18:59 50.08515 -3.54368 34024 ft 457 kts 150°
2026-05-06 18:59 50.03099 -3.49186 34023 ft 457 kts 150°
2026-05-06 19:00 49.97675 -3.44020 34019 ft 457 kts 150°
2026-05-06 19:00 49.92240 -3.38881 34022 ft 457 kts 150°
2026-05-06 19:01 49.86804 -3.33748 34023 ft 458 kts 150°
2026-05-06 19:01 49.81365 -3.28624 34019 ft 458 kts 151°
2026-05-06 19:02 49.75554 -3.24811 34021 ft 453 kts 168°
2026-05-06 19:02 49.69432 -3.22521 34007 ft 453 kts 168°
2026-05-06 19:03 49.63309 -3.20216 34020 ft 453 kts 168°
2026-05-06 19:03 49.57176 -3.17913 34020 ft 453 kts 168°
2026-05-06 19:04 49.51043 -3.15628 34018 ft 453 kts 168°
2026-05-06 19:04 49.44910 -3.13350 34011 ft 454 kts 168°
2026-05-06 19:05 49.38774 -3.11080 34008 ft 454 kts 168°
2026-05-06 19:05 49.32633 -3.08810 34015 ft 454 kts 168°
2026-05-06 19:06 49.26487 -3.06535 34015 ft 454 kts 168°
2026-05-06 19:06 49.20378 -3.04276 34018 ft 455 kts 168°
2026-05-06 19:07 49.14222 -3.02017 34012 ft 455 kts 168°
2026-05-06 19:07 49.08060 -2.99760 34007 ft 455 kts 168°
2026-05-06 19:08 49.01903 -2.97500 34008 ft 455 kts 168°
2026-05-06 19:08 48.95743 -2.95234 34008 ft 455 kts 168°
2026-05-06 19:09 48.89578 -2.92990 34012 ft 455 kts 168°
2026-05-06 19:09 48.83411 -2.90770 34006 ft 455 kts 168°
2026-05-06 19:10 48.77245 -2.88552 34008 ft 455 kts 168°
2026-05-06 19:10 48.71083 -2.86329 34007 ft 455 kts 168°
2026-05-06 19:11 48.64923 -2.84101 34015 ft 455 kts 168°
2026-05-06 19:11 48.58759 -2.81887 34013 ft 455 kts 168°
2026-05-06 19:12 48.52592 -2.79675 34013 ft 455 kts 168°
2026-05-06 19:12 48.46427 -2.77469 34002 ft 455 kts 168°
2026-05-06 19:13 48.40259 -2.75269 33998 ft 455 kts 168°
2026-05-06 19:13 48.34091 -2.73073 34003 ft 456 kts 168°
2026-05-06 19:14 48.27921 -2.70881 33996 ft 456 kts 168°
2026-05-06 19:14 48.21742 -2.68700 34004 ft 456 kts 168°
2026-05-06 19:15 48.15571 -2.66529 33997 ft 456 kts 168°
2026-05-06 19:15 48.09382 -2.64344 33998 ft 457 kts 168°
2026-05-06 19:16 48.03238 -2.62184 34002 ft 457 kts 168°
2026-05-06 19:16 47.97058 -2.60019 33996 ft 456 kts 168°
2026-05-06 19:17 47.90872 -2.57857 33996 ft 457 kts 168°
2026-05-06 19:17 47.84686 -2.55698 33995 ft 457 kts 168°
2026-05-06 19:18 47.78496 -2.53549 33984 ft 457 kts 168°
2026-05-06 19:18 47.72348 -2.51183 33985 ft 458 kts 160°
2026-05-06 19:19 47.66834 -2.46499 33985 ft 460 kts 141°
2026-05-06 19:19 47.62422 -2.39639 33989 ft 461 kts 131°
2026-05-06 19:20 47.58230 -2.32469 33989 ft 461 kts 131°
2026-05-06 19:20 47.54025 -2.25296 33989 ft 461 kts 131°
2026-05-06 19:21 47.49814 -2.18143 33984 ft 461 kts 131°
2026-05-06 19:21 47.45596 -2.11000 33985 ft 461 kts 131°
2026-05-06 19:22 47.41378 -2.03852 33981 ft 462 kts 131°
2026-05-06 19:22 47.37154 -1.96705 33985 ft 462 kts 131°
2026-05-06 19:23 47.32912 -1.89570 33985 ft 463 kts 130°
2026-05-06 19:23 47.29390 -1.83631 33986 ft 463 kts 130°
2026-05-06 19:24 47.25150 -1.76488 33985 ft 463 kts 130°
2026-05-06 19:24 47.20901 -1.69357 33981 ft 463 kts 131°
2026-05-06 19:25 47.16640 -1.62257 33977 ft 463 kts 132°
2026-05-06 19:25 47.11920 -1.55801 33981 ft 464 kts 137°
2026-05-06 19:26 47.07117 -1.49485 33996 ft 464 kts 137°
2026-05-06 19:26 47.02307 -1.43185 33999 ft 464 kts 137°
2026-05-06 19:27 46.97490 -1.36892 34001 ft 464 kts 138°
2026-05-06 19:27 46.92677 -1.30609 34003 ft 464 kts 137°
2026-05-06 19:28 46.87862 -1.24321 34005 ft 464 kts 138°
2026-05-06 19:28 46.85450 -1.21188 34136 ft 464 kts 140°
2026-05-06 19:28 46.82796 -1.18528 34483 ft 463 kts 152°
2026-05-06 19:28 46.79965 -1.16282 34832 ft 463 kts 152°
2026-05-06 19:29 46.77129 -1.14057 34968 ft 463 kts 152°
2026-05-06 19:29 46.71484 -1.09674 35002 ft 458 kts 152°
2026-05-06 19:30 46.65859 -1.05324 34999 ft 457 kts 152°
2026-05-06 19:30 46.60284 -1.00998 34998 ft 457 kts 152°
2026-05-06 19:31 46.54671 -0.96655 34991 ft 457 kts 153°
2026-05-06 19:31 46.46237 -0.90163 34992 ft 457 kts 153°
2026-05-06 19:32 46.40619 -0.85837 34993 ft 457 kts 153°
2026-05-06 19:32 46.35001 -0.81511 34984 ft 457 kts 153°
2026-05-06 19:33 46.29380 -0.77209 34988 ft 458 kts 153°
2026-05-06 19:33 46.23744 -0.72925 34986 ft 458 kts 153°
2026-05-06 19:34 46.18101 -0.68636 34979 ft 458 kts 153°
2026-05-06 19:34 46.12463 -0.64344 34983 ft 458 kts 153°
2026-05-06 19:35 46.06817 -0.60053 34977 ft 459 kts 153°
2026-05-06 19:35 46.01168 -0.55769 34976 ft 459 kts 153°
2026-05-06 19:36 45.95509 -0.51506 34971 ft 459 kts 153°
2026-05-06 19:36 45.90481 -0.47728 34974 ft 459 kts 153°
2026-05-06 19:37 45.86078 -0.44422 34971 ft 459 kts 153°
2026-05-06 19:37 45.80419 -0.40171 34974 ft 459 kts 153°
2026-05-06 19:38 45.74793 -0.35955 34972 ft 459 kts 153°
2026-05-06 19:38 45.69120 -0.31724 34970 ft 460 kts 153°
2026-05-06 19:39 45.63450 -0.27494 34968 ft 460 kts 153°
2026-05-06 19:39 45.57779 -0.23276 34966 ft 460 kts 154°
2026-05-06 19:40 45.52102 -0.19076 34967 ft 460 kts 154°
2026-05-06 19:40 45.46423 -0.14876 34971 ft 460 kts 154°
2026-05-06 19:41 45.40744 -0.10684 34976 ft 460 kts 154°
2026-05-06 19:41 45.35067 -0.06503 34971 ft 460 kts 154°
2026-05-06 19:42 45.29388 -0.02327 34979 ft 460 kts 154°
2026-05-06 19:42 45.23702 0.01841 34978 ft 460 kts 154°
2026-05-06 19:43 45.18013 0.06008 34964 ft 460 kts 154°
2026-05-06 19:43 45.12315 0.10164 34966 ft 461 kts 154°
2026-05-06 19:44 45.06650 0.14284 34974 ft 461 kts 154°
2026-05-06 19:44 45.00940 0.18437 34970 ft 461 kts 154°
2026-05-06 19:45 44.95232 0.22584 34971 ft 461 kts 154°
2026-05-06 19:45 44.89524 0.26718 34968 ft 462 kts 155°
2026-05-06 19:46 44.83803 0.30843 34974 ft 462 kts 155°
2026-05-06 19:46 44.78085 0.34953 34974 ft 462 kts 155°
2026-05-06 19:47 44.72360 0.39058 34979 ft 461 kts 155°
2026-05-06 19:47 44.66642 0.43161 34983 ft 461 kts 155°
2026-05-06 19:48 44.60927 0.47251 34975 ft 461 kts 155°
2026-05-06 19:48 44.55205 0.51340 34981 ft 461 kts 155°
2026-05-06 19:49 44.49484 0.55408 34985 ft 461 kts 155°
2026-05-06 19:49 44.43759 0.59472 34985 ft 461 kts 155°
2026-05-06 19:50 44.38036 0.63521 34974 ft 461 kts 155°
2026-05-06 19:50 44.32238 0.67614 34977 ft 461 kts 155°
2026-05-06 19:51 44.26585 0.71617 34995 ft 461 kts 155°
2026-05-06 19:51 44.20861 0.75654 34987 ft 461 kts 156°
2026-05-06 19:52 44.15130 0.79678 34996 ft 461 kts 156°
2026-05-06 19:52 44.09406 0.83690 34995 ft 461 kts 156°
2026-05-06 19:53 44.03679 0.87687 34992 ft 460 kts 156°
2026-05-06 19:53 43.97956 0.91682 34978 ft 460 kts 156°
2026-05-06 19:54 43.92236 0.95673 34979 ft 460 kts 156°
2026-05-06 19:54 43.86512 0.99650 34985 ft 460 kts 156°
2026-05-06 19:55 43.80791 1.03611 34979 ft 460 kts 157°
2026-05-06 19:55 43.75071 1.07576 34986 ft 460 kts 157°
2026-05-06 19:56 43.69356 1.11526 34992 ft 459 kts 157°
2026-05-06 19:56 43.63629 1.15459 34998 ft 459 kts 157°
2026-05-06 19:57 43.57913 1.19379 34992 ft 459 kts 158°
2026-05-06 19:57 43.52244 1.23282 34995 ft 459 kts 157°
2026-05-06 19:58 43.46496 1.27225 35000 ft 458 kts 158°
2026-05-06 19:58 43.40783 1.31131 34826 ft 459 kts 158°
2026-05-06 19:59 43.37927 1.33083 34583 ft 458 kts 158°
2026-05-06 19:59 43.35108 1.35009 34357 ft 458 kts 158°
2026-05-06 19:59 43.32218 1.36978 34118 ft 458 kts 158°
2026-05-06 19:59 43.29396 1.38896 33873 ft 459 kts 158°
2026-05-06 20:00 43.26534 1.40837 33594 ft 459 kts 158°
2026-05-06 20:00 43.23665 1.42777 33330 ft 460 kts 158°
2026-05-06 20:00 43.20795 1.44718 33042 ft 460 kts 159°
2026-05-06 20:00 43.17919 1.46666 32774 ft 461 kts 158°
2026-05-06 20:01 43.15046 1.48614 32517 ft 461 kts 158°
2026-05-06 20:01 43.12170 1.50562 32257 ft 462 kts 158°
2026-05-06 20:01 43.09285 1.52511 31997 ft 462 kts 158°
2026-05-06 20:01 43.06403 1.54456 31737 ft 462 kts 158°
2026-05-06 20:02 43.03514 1.56403 31485 ft 463 kts 158°
2026-05-06 20:02 43.00624 1.58345 31202 ft 463 kts 159°
2026-05-06 20:02 42.97728 1.60286 30951 ft 464 kts 159°
2026-05-06 20:02 42.94827 1.62229 30710 ft 464 kts 159°
2026-05-06 20:03 42.91928 1.64172 30470 ft 465 kts 158°
2026-05-06 20:03 42.89024 1.66118 30220 ft 465 kts 158°
2026-05-06 20:03 42.86117 1.68065 29954 ft 466 kts 158°
2026-05-06 20:03 42.83200 1.70018 29664 ft 467 kts 158°
2026-05-06 20:04 42.80278 1.71971 29373 ft 468 kts 158°
2026-05-06 20:04 42.77356 1.73922 29077 ft 469 kts 158°
2026-05-06 20:04 42.74424 1.75877 28808 ft 470 kts 158°
2026-05-06 20:04 42.71485 1.77833 28526 ft 471 kts 158°
2026-05-06 20:05 42.68543 1.79788 28234 ft 470 kts 158°
2026-05-06 20:05 42.65611 1.81737 27970 ft 468 kts 158°
2026-05-06 20:05 42.62690 1.83679 27697 ft 467 kts 157°
2026-05-06 20:05 42.59785 1.85614 27209 ft 463 kts 158°
2026-05-06 20:06 42.56898 1.87527 26513 ft 460 kts 157°
2026-05-06 20:06 42.54032 1.89419 25831 ft 457 kts 157°
2026-05-06 20:06 42.51184 1.91297 25162 ft 454 kts 157°
2026-05-06 20:06 42.48360 1.93160 24503 ft 450 kts 157°
2026-05-06 20:07 42.45551 1.95013 23844 ft 447 kts 156°
2026-05-06 20:07 42.42766 1.96848 23129 ft 444 kts 156°
2026-05-06 20:07 42.40013 1.98660 22786 ft 432 kts 156°
2026-05-06 20:07 42.37312 2.00225 22625 ft 413 kts 164°
2026-05-06 20:08 42.34574 2.01102 22341 ft 398 kts 175°
2026-05-06 20:08 42.31840 2.01461 21731 ft 394 kts 178°
2026-05-06 20:08 42.29129 2.01778 21245 ft 388 kts 178°
2026-05-06 20:08 42.26443 2.02092 20697 ft 386 kts 177°
2026-05-06 20:09 42.23769 2.02410 19993 ft 387 kts 177°
2026-05-06 20:09 42.21068 2.02734 19180 ft 392 kts 177°
2026-05-06 20:09 42.18340 2.03063 18389 ft 396 kts 177°
2026-05-06 20:09 42.15582 2.03398 17486 ft 399 kts 177°
2026-05-06 20:10 42.12813 2.03732 16610 ft 401 kts 177°
2026-05-06 20:10 42.10025 2.04070 15764 ft 403 kts 177°
2026-05-06 20:10 42.07224 2.04408 14928 ft 404 kts 177°
2026-05-06 20:10 42.05368 2.04630 14402 ft 405 kts 177°
2026-05-06 20:11 42.02561 2.04964 13589 ft 406 kts 177°
2026-05-06 20:11 41.99743 2.05302 12707 ft 406 kts 177°
2026-05-06 20:11 41.96935 2.05638 11851 ft 405 kts 177°
2026-05-06 20:11 41.93228 2.06082 10738 ft 403 kts 176°
2026-05-06 20:12 41.91344 2.06306 10194 ft 402 kts 176°
2026-05-06 20:12 41.88565 2.06633 9349 ft 401 kts 176°
2026-05-06 20:12 41.85804 2.06960 8560 ft 390 kts 176°
2026-05-06 20:12 41.83224 2.07270 8118 ft 353 kts 176°
2026-05-06 20:13 41.80838 2.07557 7981 ft 347 kts 176°
2026-05-06 20:13 41.78392 2.07846 7858 ft 358 kts 176°
2026-05-06 20:13 41.75879 2.08142 7734 ft 366 kts 176°
2026-05-06 20:13 41.73312 2.08443 7607 ft 373 kts 176°
2026-05-06 20:14 41.70708 2.08753 7484 ft 378 kts 176°
2026-05-06 20:14 41.68070 2.09071 7362 ft 382 kts 176°
2026-05-06 20:14 41.65414 2.09391 7239 ft 384 kts 176°
2026-05-06 20:14 41.62747 2.09710 7115 ft 381 kts 176°
2026-05-06 20:15 41.60261 2.10008 6985 ft 337 kts 176°
2026-05-06 20:15 41.58062 2.10273 6852 ft 300 kts 176°
2026-05-06 20:15 41.56069 2.10514 6733 ft 281 kts 176°
2026-05-06 20:15 41.54136 2.10772 6610 ft 279 kts 171°
2026-05-06 20:16 41.52289 2.11560 6300 ft 279 kts 154°
2026-05-06 20:16 41.50704 2.13031 5867 ft 278 kts 136°
2026-05-06 20:16 41.49432 2.14956 5425 ft 277 kts 130°
2026-05-06 20:16 41.48190 2.16907 4978 ft 275 kts 131°
2026-05-06 20:17 41.46950 2.18834 4537 ft 273 kts 131°
2026-05-06 20:17 41.45735 2.20718 4110 ft 270 kts 131°
2026-05-06 20:17 41.44548 2.22557 3975 ft 244 kts 132°
2026-05-06 20:17 41.43486 2.24201 3907 ft 230 kts 132°
2026-05-06 20:18 41.42409 2.25752 3807 ft 227 kts 142°
2026-05-06 20:18 41.41137 2.26793 3722 ft 202 kts 160°
2026-05-06 20:18 41.39876 2.27226 3626 ft 172 kts 176°
2026-05-06 20:18 41.38728 2.27213 3550 ft 165 kts 189°
2026-05-06 20:19 41.37625 2.26846 3247 ft 163 kts 202°
2026-05-06 20:19 41.36622 2.26135 2810 ft 160 kts 216°
2026-05-06 20:19 41.35807 2.25145 2501 ft 158 kts 229°
2026-05-06 20:19 41.35217 2.23977 2308 ft 147 kts 241°
2026-05-06 20:20 41.34804 2.22785 2079 ft 142 kts 244°
2026-05-06 20:20 41.34393 2.21579 1878 ft 141 kts 244°
2026-05-06 20:20 41.33994 2.20408 1702 ft 141 kts 243°
2026-05-06 20:20 41.33590 2.19222 1490 ft 141 kts 244°
2026-05-06 20:21 41.33178 2.18013 1304 ft 142 kts 243°
2026-05-06 20:21 41.32769 2.16815 1109 ft 143 kts 244°
2026-05-06 20:21 41.32367 2.15635 925 ft 137 kts 243°
2026-05-06 20:21 41.31976 2.14484 740 ft 136 kts 244°
2026-05-06 20:22 41.31593 2.13348 562 ft 137 kts 245°
2026-05-06 20:22 41.31181 2.12175 357 ft 139 kts 243°
2026-05-06 20:22 41.30760 2.11016 158 ft 141 kts 244°
2026-05-06 20:22 41.30377 2.09818 23 ft 140 kts 245°
2026-05-06 20:23 41.29963 2.08634 8 ft 134 kts 246°
2026-05-06 20:23 41.29723 2.07928 4 ft 25 kts 239°
2026-05-06 20:23 41.29618 2.07849 4 ft 16 kts 208°
2026-05-06 20:23 41.29541 2.07880 3 ft 12 kts 104°
2026-05-06 20:24 41.29490 2.07961 3 ft 12 kts 152°
2026-05-06 20:24 41.29454 2.07983 3 ft 12 kts 155°
2026-05-06 20:24 41.29413 2.08008 3 ft 12 kts 155°
2026-05-06 20:24 41.29362 2.08064 3 ft 9 kts 97°
2026-05-06 20:25 41.29373 2.08115 3 ft 0 kts 67°